User: anonymous   Login
Location: Blackwater Beach
(38.5801°N, 75.1577°W)
Time: 11:52:45
(UTC+00:00)
Language:

CZ-4C R/B - Orbit

View from above orbital plane
View from above orbital plane
View from above satellite
View from above satellite

Ground track
Ground track

The orbit is defined by the following mean orbital elements,

1 36416U          26109.20620014 +.00000000 +00000-0 +94236-4 0 00004
2 36416  63.3862 204.1595 0694149   2.9292 357.5499 13.73049656    09
Epoch (UTC): 19 April 2026 04:56:55
Eccentricity: 0.0694149
inclination: 63.3862°
perigee height: 477 km
apogee height: 1500 km
right ascension of ascending node: 204.1595°
argument of perigee: 2.9292°
revolutions per day: 13.73049656
mean anomaly at epoch: 357.5499°

The dashed part of the orbit path shows where the satellite is in the earth's shadow,  

DLR